SCO15YZ EGPH-EGSS

Flight info

Callsign SCO15YZ
Flight time 0h 59m
Altitude 33000
Route GOSAM P600 FENIK L612 ELBUS UL612 LISTO
Aircraft B738/M-SDE2E3FGHIRWXY/LB1

Departure

Time 2026-04-26 17:45
Airport Edinburgh Airport (EGPH)

Arrival

Time 2026-04-26 18:45
Airport London Stansted Airport (EGSS)
Time Latitude Longitude Altitude Speed Heading
2026-04-26 17:26 55.94702 -3.36608 115 ft 0 kts 89°
2026-04-26 17:35 55.94702 -3.36617 115 ft 2 kts 89°
2026-04-26 17:35 55.94702 -3.36646 111 ft 2 kts 89°
2026-04-26 17:35 55.94701 -3.36675 111 ft 2 kts 72°
2026-04-26 17:35 55.94693 -3.36698 111 ft 1 kts 10°
2026-04-26 17:36 55.94685 -3.36700 112 ft 1 kts 354°
2026-04-26 17:36 55.94684 -3.36700 112 ft 0 kts 354°
2026-04-26 17:38 55.94707 -3.36713 114 ft 9 kts 335°
2026-04-26 17:38 55.94775 -3.36769 114 ft 11 kts 335°
2026-04-26 17:38 55.94852 -3.36779 115 ft 11 kts 360°
2026-04-26 17:38 55.94920 -3.36833 115 ft 11 kts 309°
2026-04-26 17:39 55.94906 -3.36956 113 ft 11 kts 239°
2026-04-26 17:39 55.94847 -3.37130 112 ft 26 kts 238°
2026-04-26 17:39 55.94747 -3.37422 114 ft 27 kts 238°
2026-04-26 17:39 55.94650 -3.37705 115 ft 26 kts 238°
2026-04-26 17:40 55.94562 -3.37967 114 ft 24 kts 239°
2026-04-26 17:40 55.94535 -3.38049 115 ft 23 kts 239°
2026-04-26 17:40 55.94399 -3.38450 112 ft 22 kts 238°
2026-04-26 17:40 55.94320 -3.38680 114 ft 21 kts 238°
2026-04-26 17:41 55.94301 -3.38881 112 ft 14 kts 324°
2026-04-26 17:41 55.94323 -3.38906 115 ft 0 kts 328°
2026-04-26 17:44 55.94372 -3.38959 113 ft 16 kts 332°
2026-04-26 17:44 55.94452 -3.38867 113 ft 13 kts 58°
2026-04-26 17:45 55.94511 -3.38695 112 ft 37 kts 59°
2026-04-26 17:45 55.94787 -3.37882 112 ft 113 kts 58°
2026-04-26 17:45 55.95293 -3.36394 334 ft 154 kts 59°
2026-04-26 17:45 55.95849 -3.34699 1079 ft 165 kts 58°
2026-04-26 17:46 55.96639 -3.33175 1842 ft 168 kts 37°
2026-04-26 17:46 55.97593 -3.31722 2382 ft 196 kts 39°
2026-04-26 17:46 55.98679 -3.29997 2664 ft 225 kts 40°
2026-04-26 17:46 56.00011 -3.28319 2988 ft 242 kts 17°
2026-04-26 17:47 56.01706 -3.28211 3346 ft 254 kts 339°
2026-04-26 17:47 56.02257 -3.28638 3502 ft 257 kts 326°
2026-04-26 17:47 56.03579 -3.33069 4949 ft 253 kts 265°
2026-04-26 17:47 56.03184 -3.36136 5854 ft 255 kts 252°
2026-04-26 17:48 56.02625 -3.39182 6772 ft 259 kts 252°
2026-04-26 17:48 56.02086 -3.42267 7661 ft 261 kts 253°
2026-04-26 17:48 56.01567 -3.45390 8585 ft 263 kts 253°
2026-04-26 17:48 56.01090 -3.48565 9470 ft 266 kts 255°
2026-04-26 17:49 56.00628 -3.51786 10331 ft 269 kts 255°
2026-04-26 17:49 56.00154 -3.55113 10770 ft 288 kts 255°
2026-04-26 17:49 55.99639 -3.58726 11075 ft 309 kts 255°
2026-04-26 17:49 55.99100 -3.62500 11742 ft 316 kts 255°
2026-04-26 17:50 55.98552 -3.66323 12595 ft 319 kts 255°
2026-04-26 17:50 55.97999 -3.70179 13453 ft 322 kts 256°
2026-04-26 17:50 55.97438 -3.74081 14265 ft 326 kts 256°
2026-04-26 17:50 55.96871 -3.78010 15076 ft 329 kts 256°
2026-04-26 17:51 55.96299 -3.81975 15917 ft 331 kts 256°
2026-04-26 17:51 55.95721 -3.85972 16735 ft 334 kts 256°
2026-04-26 17:51 55.95334 -3.88639 17283 ft 336 kts 256°
2026-04-26 17:51 55.94744 -3.92694 18092 ft 339 kts 256°
2026-04-26 17:52 55.93849 -3.98073 19043 ft 346 kts 245°
2026-04-26 17:52 55.92914 -4.00444 19478 ft 354 kts 227°
2026-04-26 17:52 55.90939 -4.03151 20225 ft 360 kts 217°
2026-04-26 17:52 55.88149 -4.06417 21083 ft 365 kts 218°
2026-04-26 17:53 55.86751 -4.08197 21502 ft 366 kts 220°
2026-04-26 17:53 55.84738 -4.11010 22154 ft 369 kts 223°
2026-04-26 17:53 55.82777 -4.13984 22800 ft 372 kts 224°
2026-04-26 17:54 55.78890 -4.20093 23993 ft 379 kts 225°
2026-04-26 17:54 55.76807 -4.22998 24544 ft 383 kts 219°
2026-04-26 17:54 55.74484 -4.25483 25119 ft 390 kts 205°
2026-04-26 17:54 55.71838 -4.26494 25690 ft 401 kts 187°
2026-04-26 17:55 55.69031 -4.26152 26275 ft 410 kts 173°
2026-04-26 17:55 55.66284 -4.24344 26791 ft 422 kts 158°
2026-04-26 17:55 55.63727 -4.21874 27317 ft 426 kts 155°
2026-04-26 17:55 55.61148 -4.19247 27780 ft 429 kts 155°
2026-04-26 17:56 55.58555 -4.16603 28245 ft 431 kts 156°
2026-04-26 17:56 55.53317 -4.11405 29352 ft 430 kts 157°
2026-04-26 17:57 55.48144 -4.06375 30785 ft 420 kts 158°
2026-04-26 17:57 55.45585 -4.03891 31228 ft 420 kts 158°
2026-04-26 17:57 55.43017 -4.01402 31572 ft 422 kts 158°
2026-04-26 17:57 55.40442 -3.98906 32029 ft 422 kts 158°
2026-04-26 17:58 55.32762 -3.91474 33255 ft 422 kts 158°
2026-04-26 17:59 55.25014 -3.84006 33239 ft 419 kts 158°
2026-04-26 17:59 55.19905 -3.79104 33248 ft 419 kts 158°
2026-04-26 18:00 55.14827 -3.74248 33261 ft 420 kts 158°
2026-04-26 18:00 55.09685 -3.69339 33261 ft 422 kts 158°
2026-04-26 18:01 55.04524 -3.64422 33251 ft 423 kts 158°
2026-04-26 18:01 54.99345 -3.59504 33248 ft 423 kts 158°
2026-04-26 18:02 54.95044 -3.55445 33250 ft 422 kts 158°
2026-04-26 18:02 54.89014 -3.49789 33251 ft 421 kts 158°
2026-04-26 18:03 54.83866 -3.44972 33253 ft 419 kts 158°
2026-04-26 18:03 54.78765 -3.40211 33260 ft 418 kts 158°
2026-04-26 18:04 54.73637 -3.35437 33259 ft 418 kts 158°
2026-04-26 18:05 54.65779 -3.29110 33258 ft 414 kts 163°
2026-04-26 18:05 54.60481 -3.25235 33266 ft 414 kts 163°
2026-04-26 18:06 54.55168 -3.21304 33260 ft 416 kts 163°
2026-04-26 18:06 54.49851 -3.17340 33259 ft 416 kts 162°
2026-04-26 18:07 54.44533 -3.13375 33253 ft 416 kts 162°
2026-04-26 18:07 54.39225 -3.09428 33271 ft 415 kts 162°
2026-04-26 18:08 54.33914 -3.05494 33264 ft 417 kts 162°
2026-04-26 18:08 54.28585 -3.01555 33261 ft 417 kts 162°
2026-04-26 18:09 54.23250 -2.97625 33261 ft 417 kts 162°
2026-04-26 18:09 54.17909 -2.93716 33267 ft 417 kts 163°
2026-04-26 18:10 54.12577 -2.89827 33265 ft 417 kts 162°
2026-04-26 18:10 54.07237 -2.85938 33266 ft 417 kts 162°
2026-04-26 18:11 54.01909 -2.82068 33275 ft 417 kts 162°
2026-04-26 18:11 53.96569 -2.78217 33261 ft 416 kts 163°
2026-04-26 18:12 53.91269 -2.74423 33281 ft 416 kts 163°
2026-04-26 18:12 53.85939 -2.70574 33261 ft 416 kts 162°
2026-04-26 18:13 53.80614 -2.66719 33256 ft 416 kts 162°
2026-04-26 18:13 53.75299 -2.62893 33261 ft 415 kts 162°
2026-04-26 18:14 53.69979 -2.59092 33259 ft 415 kts 162°
2026-04-26 18:14 53.64665 -2.55301 33264 ft 415 kts 162°
2026-04-26 18:15 53.59341 -2.51509 33262 ft 415 kts 162°
2026-04-26 18:15 53.54026 -2.47722 33262 ft 415 kts 162°
2026-04-26 18:16 53.48711 -2.43944 33262 ft 415 kts 162°
2026-04-26 18:16 53.40755 -2.38326 33279 ft 421 kts 162°
2026-04-26 18:17 53.35256 -2.34465 33278 ft 437 kts 162°
2026-04-26 18:17 53.29560 -2.30462 33275 ft 451 kts 162°
2026-04-26 18:18 53.23687 -2.26354 33270 ft 461 kts 162°
2026-04-26 18:18 53.17768 -2.22279 33253 ft 459 kts 162°
2026-04-26 18:19 53.12060 -2.17497 33274 ft 466 kts 148°
2026-04-26 18:19 53.06857 -2.11017 33269 ft 467 kts 147°
2026-04-26 18:20 53.01679 -2.04555 33098 ft 470 kts 148°
2026-04-26 18:20 52.99003 -2.01273 32713 ft 470 kts 148°
2026-04-26 18:20 52.97253 -1.99144 32393 ft 471 kts 148°
2026-04-26 18:21 52.93745 -1.94897 31783 ft 472 kts 148°
2026-04-26 18:21 52.91090 -1.91694 31312 ft 474 kts 148°
2026-04-26 18:21 52.88418 -1.88475 30846 ft 476 kts 148°
2026-04-26 18:21 52.85733 -1.85243 30368 ft 478 kts 148°
2026-04-26 18:22 52.83038 -1.82002 29817 ft 479 kts 148°
2026-04-26 18:22 52.80352 -1.78771 29273 ft 472 kts 147°
2026-04-26 18:22 52.77725 -1.75614 28794 ft 462 kts 148°
2026-04-26 18:22 52.75147 -1.72528 28287 ft 453 kts 148°
2026-04-26 18:23 52.72542 -1.69756 28005 ft 438 kts 154°
2026-04-26 18:23 52.69890 -1.67403 27739 ft 431 kts 157°
2026-04-26 18:23 52.67194 -1.65194 27492 ft 434 kts 158°
2026-04-26 18:23 52.64466 -1.62990 27237 ft 439 kts 158°
2026-04-26 18:24 52.61729 -1.60748 26979 ft 440 kts 157°
2026-04-26 18:24 52.59007 -1.58476 26721 ft 439 kts 156°
2026-04-26 18:24 52.56292 -1.56177 26472 ft 438 kts 156°
2026-04-26 18:24 52.53592 -1.53875 25683 ft 440 kts 156°
2026-04-26 18:25 52.50891 -1.51566 25126 ft 435 kts 155°
2026-04-26 18:25 52.48220 -1.49283 24558 ft 431 kts 155°
2026-04-26 18:25 52.45567 -1.47020 23977 ft 427 kts 155°
2026-04-26 18:25 52.42971 -1.44810 23301 ft 425 kts 155°
2026-04-26 18:26 52.40390 -1.42508 22672 ft 421 kts 153°
2026-04-26 18:26 52.37861 -1.40128 22096 ft 416 kts 153°
2026-04-26 18:26 52.35370 -1.37755 21510 ft 412 kts 152°
2026-04-26 18:26 52.32899 -1.35395 20931 ft 409 kts 152°
2026-04-26 18:27 52.30455 -1.33062 20372 ft 405 kts 152°
2026-04-26 18:27 52.28851 -1.31531 20092 ft 401 kts 152°
2026-04-26 18:27 52.25657 -1.28488 19561 ft 394 kts 152°
2026-04-26 18:27 52.23297 -1.26245 19173 ft 394 kts 152°
2026-04-26 18:28 52.20909 -1.23984 18787 ft 398 kts 152°
2026-04-26 18:28 52.18501 -1.21765 18339 ft 397 kts 155°
2026-04-26 18:28 52.16013 -1.19875 17894 ft 391 kts 158°
2026-04-26 18:28 52.13561 -1.18023 17489 ft 387 kts 156°
2026-04-26 18:29 52.11165 -1.16048 17101 ft 383 kts 154°
2026-04-26 18:29 52.08848 -1.13977 16716 ft 380 kts 153°
2026-04-26 18:29 52.06561 -1.11851 16336 ft 377 kts 152°
2026-04-26 18:29 52.04292 -1.09721 15964 ft 375 kts 152°
2026-04-26 18:30 52.02117 -1.07428 15560 ft 376 kts 140°
2026-04-26 18:30 52.00496 -1.04086 15214 ft 378 kts 118°
2026-04-26 18:30 51.99658 -1.00095 15008 ft 376 kts 99°
2026-04-26 18:30 51.99532 -0.95855 14825 ft 377 kts 91°
2026-04-26 18:31 51.99373 -0.91596 14592 ft 380 kts 94°
2026-04-26 18:31 51.99309 -0.87304 14373 ft 378 kts 91°
2026-04-26 18:31 51.99308 -0.83062 14155 ft 376 kts 91°
2026-04-26 18:31 51.99321 -0.78821 13921 ft 374 kts 91°
2026-04-26 18:32 51.99338 -0.74615 13685 ft 372 kts 90°
2026-04-26 18:32 51.99350 -0.71851 13544 ft 371 kts 90°
2026-04-26 18:32 51.99373 -0.66269 13255 ft 369 kts 90°
2026-04-26 18:32 51.99389 -0.62136 12892 ft 365 kts 90°
2026-04-26 18:33 51.99401 -0.58094 12434 ft 359 kts 90°
2026-04-26 18:33 51.99411 -0.54162 12288 ft 336 kts 90°
2026-04-26 18:33 51.99419 -0.50483 12147 ft 316 kts 90°
2026-04-26 18:33 51.99425 -0.47022 11870 ft 303 kts 90°
2026-04-26 18:34 51.99429 -0.43620 11381 ft 300 kts 90°
2026-04-26 18:34 51.99425 -0.40232 10824 ft 299 kts 90°
2026-04-26 18:34 51.99404 -0.36873 10328 ft 297 kts 95°
2026-04-26 18:34 51.98854 -0.33673 9766 ft 294 kts 115°
2026-04-26 18:35 51.98009 -0.30677 9262 ft 291 kts 115°
2026-04-26 18:35 51.97161 -0.27711 8730 ft 289 kts 115°
2026-04-26 18:35 51.96315 -0.24775 8266 ft 285 kts 115°
2026-04-26 18:35 51.95759 -0.22855 7972 ft 282 kts 115°
2026-04-26 18:36 51.94648 -0.19046 7350 ft 278 kts 116°
2026-04-26 18:36 51.94099 -0.17179 7059 ft 276 kts 116°
2026-04-26 18:36 51.93284 -0.14417 6824 ft 264 kts 116°
2026-04-26 18:36 51.92512 -0.11811 6710 ft 249 kts 116°
2026-04-26 18:37 51.91779 -0.09342 6482 ft 240 kts 116°
2026-04-26 18:37 51.91060 -0.06923 6104 ft 238 kts 116°
2026-04-26 18:37 51.90345 -0.04521 5765 ft 236 kts 116°
2026-04-26 18:37 51.89635 -0.02142 5387 ft 234 kts 116°
2026-04-26 18:38 51.88976 0.00055 4990 ft 230 kts 116°
2026-04-26 18:38 51.88274 0.02392 4416 ft 231 kts 116°
2026-04-26 18:38 51.87573 0.04715 3907 ft 230 kts 116°
2026-04-26 18:38 51.86793 0.06953 3380 ft 228 kts 133°
2026-04-26 18:39 51.85435 0.08067 3102 ft 216 kts 176°
2026-04-26 18:39 51.84085 0.07432 3003 ft 199 kts 220°
2026-04-26 18:39 51.83136 0.05904 3002 ft 190 kts 226°
2026-04-26 18:39 51.82233 0.04405 2979 ft 181 kts 226°
2026-04-26 18:40 51.81377 0.02984 2974 ft 173 kts 226°
2026-04-26 18:40 51.80543 0.01599 2985 ft 172 kts 226°
2026-04-26 18:40 51.79683 0.00275 2865 ft 170 kts 211°
2026-04-26 18:40 51.78544 0.00044 2515 ft 171 kts 157°
2026-04-26 18:41 51.77749 0.01371 2175 ft 170 kts 104°
2026-04-26 18:41 51.77891 0.03231 2102 ft 173 kts 70°
2026-04-26 18:41 51.78297 0.05095 2006 ft 176 kts 71°
2026-04-26 18:41 51.78688 0.06924 1983 ft 169 kts 71°
2026-04-26 18:42 51.79083 0.08677 1973 ft 165 kts 62°
2026-04-26 18:42 51.79813 0.10062 2019 ft 167 kts 46°
2026-04-26 18:42 51.80606 0.11476 2008 ft 170 kts 47°
2026-04-26 18:42 51.81453 0.12841 2011 ft 169 kts 44°
2026-04-26 18:43 51.82312 0.14145 1878 ft 170 kts 43°
2026-04-26 18:43 51.83137 0.15387 1696 ft 155 kts 44°
2026-04-26 18:43 51.83886 0.16516 1449 ft 140 kts 45°
2026-04-26 18:43 51.84590 0.17577 1244 ft 136 kts 46°
2026-04-26 18:44 51.85278 0.18618 1097 ft 138 kts 47°
2026-04-26 18:44 51.85988 0.19689 895 ft 139 kts 46°
2026-04-26 18:44 51.86691 0.20752 676 ft 138 kts 48°
2026-04-26 18:44 51.87391 0.21815 458 ft 138 kts 47°
2026-04-26 18:45 51.88070 0.22832 344 ft 125 kts 45°
2026-04-26 18:45 51.88557 0.23568 352 ft 64 kts 42°
2026-04-26 18:45 51.88760 0.23873 348 ft 31 kts 43°
2026-04-26 18:45 51.88866 0.24151 358 ft 26 kts 71°
2026-04-26 18:46 51.88909 0.24371 355 ft 15 kts 72°
2026-04-26 18:46 51.88923 0.24448 355 ft 0 kts 72°
2026-04-26 18:46 51.88924 0.24449 355 ft 1 kts 72°
2026-04-26 18:46 51.88903 0.24539 355 ft 13 kts 99°
2026-04-26 18:47 51.88956 0.24648 355 ft 13 kts 43°
2026-04-26 18:47 51.89020 0.24743 358 ft 12 kts 43°
2026-04-26 18:47 51.89082 0.24836 357 ft 12 kts 43°
2026-04-26 18:47 51.89143 0.24927 354 ft 12 kts 43°
2026-04-26 18:48 51.89201 0.25015 355 ft 11 kts 46°
2026-04-26 18:48 51.89244 0.25123 360 ft 12 kts 59°
2026-04-26 18:48 51.89300 0.25234 359 ft 13 kts 43°
2026-04-26 18:48 51.89361 0.25326 356 ft 12 kts 43°
2026-04-26 18:49 51.89422 0.25416 360 ft 12 kts 43°
2026-04-26 18:49 51.89488 0.25517 358 ft 17 kts 43°
2026-04-26 18:49 51.89602 0.25689 356 ft 21 kts 42°
2026-04-26 18:49 51.89707 0.25845 363 ft 20 kts 43°
2026-04-26 18:50 51.89804 0.25999 356 ft 19 kts 53°
2026-04-26 18:50 51.89756 0.26144 357 ft 16 kts 156°
2026-04-26 18:50 51.89683 0.26254 356 ft 11 kts 132°
2026-04-26 18:50 51.89638 0.26333 358 ft 6 kts 138°
2026-04-26 18:51 51.89595 0.26333 356 ft 8 kts 216°
2026-04-26 18:51 51.89574 0.26304 356 ft 0 kts 220°